Track COSMOS 1361 now! 10-day predictions COSMOS 1361 is classified as:
1 13164U 82040E 21110.74664479 -.00000017 00000-0 -92213-5 0 9993 2 13164 74.0151 2.6089 0013821 112.5152 304.1612 12.48173205775102